Date String (YYYY-MM-DD hh:mm:ss) UTC,Instrument flags,Ambient pressure (hPa),Sample flow (lpm),Bypass flow (lpm),Sample temperature (°C),Ambient temperature (°C),ASC tube jacket temperature (°C),LED temperature (°C),Box temperature (°C),Sample RH (%),Span deviation,Mass concentration (μg/m³),Mass concentration (μg/m³),Mass concentration (μg/m³)
DateTimeUTC,F1_M11,P_M11,Q1_M11,Q2_M11,T1_M11,T2_M11,T3_M11,T4_M11,T5_M11,U1_M11,ZSPAN_M11,X2_M11,X0_M11,X1_M11
2022-06-01 00:00:00,,0829.7,5.01,0.00,28.0,26.9,00.0,36.9,29.9,22.9,0000.0,0003.15,0005.05,0002.49
2022-06-01 00:01:00,,0829.7,5.01,0.00,28.0,26.9,00.0,36.9,29.9,22.8,0000.0,0003.17,0005.06,0002.51
2022-06-01 00:02:00,,0829.7,4.99,0.00,28.0,27.0,00.0,36.9,29.9,22.9,0000.0,0003.19,0005.12,0002.53
2022-06-01 00:03:00,,0829.7,5.00,0.00,28.0,27.0,00.0,36.9,29.9,23.1,0000.0,0003.20,0005.09,0002.54
2022-06-01 00:04:00,,0829.8,5.00,0.00,28.0,27.0,00.0,36.9,29.9,23.0,0000.0,0003.20,0004.92,0002.54
2022-06-01 00:05:00,,0829.7,5.00,0.00,28.0,27.0,00.0,36.9,29.9,23.1,0000.0,0003.23,0005.08,0002.59
2022-06-01 00:06:00,,0829.7,5.00,0.00,28.0,27.0,00.0,36.9,29.9,23.2,0000.0,0003.28,0005.26,0002.65
2022-06-01 00:07:00,,0829.8,4.99,0.00,28.0,27.0,00.0,36.9,29.9,23.2,0000.0,0003.27,0005.13,0002.68
2022-06-01 00:08:00,,0829.8,4.99,0.00,28.0,27.0,00.0,36.9,29.9,23.2,0000.0,0003.28,0005.14,0002.71
2022-06-01 00:09:00,,0829.9,5.01,0.00,28.0,27.0,00.0,36.9,29.9,23.1,0000.0,0003.29,0005.07,0002.73
2022-06-01 00:10:00,,0829.9,4.99,0.00,28.0,27.0,00.0,36.9,29.9,22.9,0000.0,0003.27,0004.91,0002.75
2022-06-01 00:11:00,,0829.9,4.99,0.00,28.0,27.0,00.0,36.9,29.9,22.9,0000.0,0003.28,0004.85,0002.77
2022-06-01 00:12:00,,0829.9,5.01,0.00,28.0,27.0,00.0,36.9,29.9,23.0,0000.0,0003.29,0004.88,0002.78
2022-06-01 00:13:00,,0829.9,5.02,0.00,28.0,27.0,00.0,36.9,29.9,23.4,0000.0,0003.29,0004.93,0002.79
2022-06-01 00:14:00,,0829.9,4.99,0.00,28.0,27.0,00.0,36.9,29.9,23.3,0000.0,0003.27,0004.88,0002.81
2022-06-01 00:15:00,,0829.9,5.00,0.00,28.0,27.0,00.0,36.9,29.9,23.3,0000.0,0003.28,0004.86,0002.85
2022-06-01 00:16:00,,0829.9,5.00,0.00,28.0,27.0,00.0,36.9,29.9,23.2,0000.0,0003.28,0004.73,0002.85
2022-06-01 00:17:00,,0830.0,4.99,0.00,28.0,27.0,00.0,36.9,29.9,22.9,0000.0,0003.27,0004.82,0002.84
2022-06-01 00:18:00,,0830.0,5.00,0.00,28.0,27.0,00.0,36.9,29.9,23.0,0000.0,0003.30,0005.05,0002.85
2022-06-01 00:19:00,,0830.0,5.02,0.00,28.0,27.0,00.0,36.9,29.9,22.8,0000.0,0003.29,0005.02,0002.86
2022-06-01 00:20:00,,0830.0,5.01,0.00,28.0,27.0,00.0,36.9,29.9,22.6,0000.0,0003.30,0005.17,0002.84
2022-06-01 00:21:00,,0830.0,4.98,0.00,28.0,27.0,00.0,36.9,29.9,22.5,0000.0,0003.29,0005.17,0002.81
2022-06-01 00:22:00,,0830.0,5.00,0.00,28.0,27.0,00.0,36.9,29.9,22.4,0000.0,0003.26,0005.14,0002.77
2022-06-01 00:23:00,,0830.0,5.00,0.00,28.0,27.0,00.0,36.9,29.9,22.3,0000.0,0003.23,0005.03,0002.74
2022-06-01 00:24:00,,0830.0,5.01,0.00,28.0,27.0,00.0,36.9,29.9,22.3,0000.0,0003.24,0005.07,0002.71
2022-06-01 00:25:00,,0830.0,5.01,0.00,28.0,27.0,00.0,36.9,29.9,22.3,0000.0,0003.22,0004.96,0002.68
2022-06-01 00:26:00,,0830.0,5.00,0.00,28.0,27.0,00.0,36.9,29.9,22.3,0000.0,0003.20,0004.92,0002.63
2022-06-01 00:27:00,,0830.0,4.99,0.00,28.0,27.0,00.0,36.9,29.9,22.1,0000.0,0003.17,0004.89,0002.61
2022-06-01 00:28:00,,0830.0,5.00,0.00,28.0,27.0,00.0,36.9,29.9,22.1,0000.0,0003.14,0004.69,0002.60
2022-06-01 00:29:00,,0830.1,5.00,0.00,28.0,27.0,00.0,36.9,29.9,22.1,0000.0,0003.11,0004.49,0002.59
2022-06-01 00:30:00,,0830.1,5.01,0.00,28.0,27.0,00.0,36.9,29.9,22.2,0000.0,0003.07,0004.36,0002.56
2022-06-01 00:31:00,,0830.1,5.00,0.00,28.0,27.0,00.0,36.9,29.9,22.3,0000.0,0003.03,0004.17,0002.56
2022-06-01 00:32:00,,0830.1,5.00,0.00,28.0,27.0,00.0,36.9,29.9,22.2,0000.0,0003.06,0004.24,0002.57
2022-06-01 00:33:00,,0830.0,4.99,0.00,28.0,27.0,00.0,36.9,29.9,21.9,0000.0,0003.06,0004.16,0002.57
2022-06-01 00:34:00,,0830.0,4.99,0.00,28.0,27.0,00.0,36.9,29.9,21.9,0000.0,0003.05,0004.13,0002.56
2022-06-01 00:35:00,,0830.1,5.00,0.00,28.0,27.0,00.0,36.9,29.9,21.9,0000.0,0003.00,0004.08,0002.57
2022-06-01 00:36:00,,0830.1,5.00,0.00,28.0,27.0,00.0,36.9,29.9,21.9,0000.0,0002.98,0004.71,0002.56
2022-06-01 00:37:00,,0830.0,5.01,0.00,28.0,27.0,00.0,36.9,29.9,22.0,0000.0,0002.96,0004.60,0002.56
2022-06-01 00:38:00,,0830.0,5.00,0.00,28.0,27.0,00.0,36.9,29.9,22.0,0000.0,0002.96,0004.49,0002.55
2022-06-01 00:39:00,,0830.1,5.00,0.00,28.0,27.0,00.0,36.9,29.9,22.2,0000.0,0002.95,0004.46,0002.55
2022-06-01 00:40:00,,0830.1,5.00,0.00,28.0,27.0,00.0,36.9,29.9,22.2,0000.0,0002.95,0004.46,0002.54
2022-06-01 00:41:00,,0830.1,5.01,0.00,28.0,27.0,00.0,37.0,29.9,22.1,0000.0,0002.96,0004.49,0002.53
2022-06-01 00:42:00,,0830.0,4.99,0.00,28.1,27.0,00.0,37.0,30.0,22.1,0000.0,0002.97,0004.53,0002.51
2022-06-01 00:43:00,,0830.0,5.00,0.00,28.1,27.0,00.0,37.0,30.0,22.1,0000.0,0002.92,0004.45,0002.48
2022-06-01 00:44:00,,0830.1,5.01,0.00,28.1,27.0,00.0,37.0,30.0,22.1,0000.0,0002.95,0004.56,0002.47
2022-06-01 00:45:00,,0830.1,5.00,0.00,28.1,27.1,00.0,37.0,30.0,21.9,0000.0,0002.98,0004.70,0002.47
2022-06-01 00:46:00,,0830.0,5.00,0.00,28.1,27.1,00.0,37.0,30.0,21.9,0000.0,0002.95,0004.55,0002.46
2022-06-01 00:47:00,,0830.1,5.01,0.00,28.1,27.1,00.0,37.0,30.0,21.8,0000.0,0002.92,0003.86,0002.44
2022-06-01 00:48:00,,0830.1,4.99,0.00,28.1,27.1,00.0,37.0,30.0,21.8,0000.0,0002.92,0003.92,0002.43
2022-06-01 00:49:00,,0830.1,5.00,0.00,28.1,27.1,00.0,37.0,30.0,21.8,0000.0,0002.91,0003.96,0002.41
2022-06-01 00:50:00,,0830.1,5.01,0.00,28.1,27.1,00.0,37.0,30.0,21.9,0000.0,0002.89,0003.99,0002.39
2022-06-01 00:51:00,,0830.1,5.00,0.00,28.1,27.1,00.0,37.0,30.0,22.0,0000.0,0002.84,0003.97,0002.37
2022-06-01 00:52:00,,0830.2,4.99,0.00,28.1,27.1,00.0,37.0,30.0,22.1,0000.0,0002.81,0003.92,0002.35
2022-06-01 00:53:00,,0830.2,5.00,0.00,28.1,27.1,00.0,37.0,30.0,22.1,0000.0,0002.80,0003.88,0002.35
2022-06-01 00:54:00,,0830.2,5.00,0.00,28.1,27.1,00.0,37.0,30.0,22.2,0000.0,0002.75,0003.75,0002.35
2022-06-01 00:55:00,,0830.2,4.99,0.00,28.1,27.1,00.0,37.0,30.0,22.2,0000.0,0002.66,0003.53,0002.34
2022-06-01 00:56:00,,0830.2,5.00,0.00,28.1,27.1,00.0,37.0,30.0,22.2,0000.0,0002.63,0003.40,0002.33
2022-06-01 00:57:00,,0830.2,5.00,0.00,28.1,27.1,00.0,37.0,30.0,22.2,0000.0,0002.61,0003.41,0002.31
2022-06-01 00:58:00,,0830.2,5.01,0.00,28.1,27.1,00.0,37.0,30.0,22.2,0000.0,0002.61,0003.43,0002.30
2022-06-01 00:59:00,,0830.2,5.01,0.00,28.1,27.1,00.0,37.0,30.0,22.2,0000.0,0002.64,0003.51,0002.30
